Location: Unspecified
(0.0000°N, 0.0000°E)
Time: 06:33:19
(UTC+00:00)

Tiros 1 despin weight - All Passes

Search period start: 08 February 2023 00:00
Search period end: 18 February 2023 00:00
Orbit: 589 x 636 km, 48.2° (Epoch: 07 February)

Date Brightness Start Highest point End Pass type
(mag) Time Alt. Az. Time Alt. Az. Time Alt. Az.
08 Feb - 11:08:41 10° SW 11:13:20 81° NW 11:17:58 10° NE daylight
08 Feb - 21:37:50 10° NNE 21:39:21 12° NE 21:40:53 10° ENE night (unlit)
08 Feb - 23:16:25 10° NW 23:20:38 47° SW 23:24:52 10° SSE night (unlit)
09 Feb - 09:43:17 10° S 09:46:42 20° SE 09:50:07 10° E daylight
09 Feb - 11:23:54 10° WSW 11:27:59 31° NW 11:32:05 10° NNE daylight
09 Feb - 21:50:14 10° N 21:54:04 29° NE 21:57:54 10° ESE night (unlit)
09 Feb - 23:32:17 10° W 23:35:19 18° SW 23:38:21 10° S night (unlit)
10 Feb - 09:56:52 10° SSW 10:01:22 50° SE 10:05:52 10° NE daylight
10 Feb - 11:40:43 10° WNW 11:42:42 12° NW 11:44:40 10° NNW daylight
10 Feb - 22:04:20 10° NW 22:08:43 83° NE 22:13:06 10° SE night (unlit)
11 Feb - 08:33:47 10° SE 08:34:40 10° SE 08:35:33 10° ESE daylight
11 Feb - 10:11:26 10° SW 10:16:00 60° NW 10:20:34 10° NNE daylight
11 Feb - 20:39:26 10° NNE 20:42:05 16° NE 20:44:44 10° E night (unlit)
11 Feb - 22:19:20 10° WNW 22:23:21 35° SW 22:27:21 10° SSE night (unlit)
12 Feb - 08:45:31 10° S 08:49:23 26° SE 08:53:15 10° ENE daylight
12 Feb - 10:26:57 10° WSW 10:30:38 23° NW 10:34:21 10° N daylight
12 Feb - 20:52:37 10° NNW 20:56:46 40° NE 21:00:52 10° ESE night (unlit)
12 Feb - 22:35:45 10° W 22:38:01 14° SW 22:40:16 10° SSW night (unlit)
13 Feb - 08:59:25 10° SSW 09:04:00 68° SE 09:08:36 10° NE daylight
13 Feb - 21:06:59 10° NW 21:11:22 73° SW 21:15:45 10° SSE night (unlit)
14 Feb - 07:34:56 10° SSE 07:37:19 14° SE 07:39:42 10° E daylight
14 Feb - 09:14:13 10° WSW 09:18:37 44° NW 09:23:02 10° NNE daylight
14 Feb - 19:41:25 10° N 19:44:44 21° NE 19:48:03 10° E visible
14 Feb - 21:22:17 10° WNW 21:25:59 26° SW 21:29:41 10° S night (unlit)
15 Feb - 07:47:48 10° SSW 07:51:58 34° SE 07:56:10 10° ENE daylight
15 Feb - 09:30:07 10° W 09:33:15 18° NW 09:36:24 10° N daylight
15 Feb - 19:55:02 10° NNW 19:59:22 54° NE 20:03:40 10° SE visible
15 Feb - 21:40:03 10° WSW 21:40:39 10° SW 21:41:14 10° SW night (unlit)
16 Feb - 08:01:58 10° SW 08:06:33 89° WNW 08:11:11 10° NE daylight
16 Feb - 18:31:36 10° NE 18:32:39 11° NE 18:33:41 10° ENE daylight
16 Feb - 20:09:38 10° NW 20:13:57 53° SW 20:18:14 10° SSE visible
17 Feb - 06:36:45 10° S 06:39:53 18° SE 06:43:02 10° E daylight
17 Feb - 08:17:00 10° WSW 08:21:09 33° NW 08:25:19 10° NNE daylight
17 Feb - 18:43:31 10° N 18:47:18 27° NE 18:51:04 10° ESE visible
17 Feb - 20:25:16 10° W 20:28:33 20° SW 20:31:49 10° S visible
